Location: Cardiff
(53.7833°N, 113.6000°W)
Time: 19:26:21
(UTC+00:00)

NOAA 15 - Pass Details

Date: 06 December 2023
Orbit: 796 x 810 km, 98.6° (Epoch: 21 February)

Event Time Altitude Azimuth Distance (km) Brightness Sun altitude
Rises 14:21:12 0° 23° (NNE) 3,326 7.8 -10.2°
Reaches altitude 10° 14:23:59 10° 37° (NE) 2,388 7.2 -9.8°
Maximum altitude 14:28:15 24° 91° (E) 1,594 7.1 -9.3°
Drops below altitude 10° 14:32:28 10° 145° (SE) 2,369 8.1 -8.7°
Sets 14:35:13 0° 159° (SSE) 3,292 8.6 -8.3°
